Time,TemperatureF,DewpointF,PressureIn,WindDirection,WindDirectionDegrees,WindSpeedMPH,WindSpeedGustMPH,Humidity,HourlyPrecipIn,Conditions,Clouds,dailyrainin,SoftwareType,DateUTC
2013-07-05 00:00:00,81.5,62.7,29.95,WSW,257,1.0,8.0,53,0.00,,FEW250,0.00,VWS V14.01,2013-07-05 05:00:00,
2013-07-05 00:02:00,80.2,63.1,29.96,SSW,196,2.0,5.0,56,0.00,,FEW140,0.00,VWS V14.01,2013-07-05 05:02:00,
2013-07-05 00:05:00,81.5,62.7,29.95,East,90,0.0,6.0,53,0.00,,FEW250,0.00,VWS V14.01,2013-07-05 05:05:00,
2013-07-05 00:07:00,80.0,62.9,29.96,SSE,161,0.0,3.0,56,0.00,,FEW140,0.00,VWS V14.01,2013-07-05 05:07:00,
2013-07-05 00:10:00,81.4,62.6,29.95,East,97,5.0,7.0,53,0.00,,FEW250,0.00,VWS V14.01,2013-07-05 05:10:00,
2013-07-05 00:12:00,79.9,62.8,29.96,SSE,160,0.0,5.0,56,0.00,,FEW140,0.00,VWS V14.01,2013-07-05 05:12:00,
2013-07-05 00:15:00,81.3,62.5,29.96,SSW,209,2.0,5.0,53,0.00,,FEW250,0.00,VWS V14.01,2013-07-05 05:15:00,
2013-07-05 00:17:00,79.8,62.7,29.96,SSW,205,3.0,7.0,56,0.00,,FEW140,0.00,VWS V14.01,2013-07-05 05:17:00,
2013-07-05 00:20:00,81.2,63.0,29.96,SW,222,0.0,3.0,54,0.00,,FEW250,0.00,VWS V14.01,2013-07-05 05:20:00,
2013-07-05 00:22:00,79.8,62.7,29.96,SSW,211,2.0,5.0,56,0.00,,FEW140,0.00,VWS V14.01,2013-07-05 05:22:00,
2013-07-05 00:25:00,81.0,62.8,29.96,ESE,118,0.0,5.0,54,0.00,,FEW250,0.00,VWS V14.01,2013-07-05 05:25:00,
2013-07-05 00:27:00,79.7,62.6,29.96,SSW,200,1.0,5.0,56,0.00,,FEW140,0.00,VWS V14.01,2013-07-05 05:27:00,
2013-07-05 00:30:00,80.9,63.2,29.96,SSW,207,3.0,3.0,55,0.00,,FEW250,0.00,VWS V14.01,2013-07-05 05:30:00,
2013-07-05 00:32:00,79.7,62.6,29.96,SSE,150,1.0,3.0,56,0.00,,FEW140,0.00,VWS V14.01,2013-07-05 05:32:00,
2013-07-05 00:35:00,80.7,63.0,29.96,SSW,200,0.0,3.0,55,0.00,,FEW250,0.00,VWS V14.01,2013-07-05 05:35:00,
2013-07-05 00:37:00,79.6,62.5,29.96,South,182,2.0,3.0,56,0.00,,FEW140,0.00,VWS V14.01,2013-07-05 05:37:00,
2013-07-05 00:40:00,80.5,62.9,29.96,SSW,203,0.0,3.0,55,0.00,,FEW250,0.00,VWS V14.01,2013-07-05 05:40:00,
2013-07-05 00:42:00,79.4,62.9,29.96,SE,146,2.0,3.0,57,0.00,,FEW140,0.00,VWS V14.01,2013-07-05 05:42:00,
2013-07-05 00:45:00,80.3,63.2,29.97,SSE,150,2.0,4.0,56,0.00,,FEW250,0.00,VWS V14.01,2013-07-05 05:45:00,
2013-07-05 00:47:00,79.3,62.8,29.96,South,172,0.0,4.0,57,0.00,,FEW140,0.00,VWS V14.01,2013-07-05 05:47:00,
2013-07-05 00:50:00,80.3,63.2,29.96,SSE,151,2.0,4.0,56,0.00,,FEW250,0.00,VWS V14.01,2013-07-05 05:50:00,
2013-07-05 00:52:00,79.2,62.7,29.96,SSW,196,1.0,3.0,57,0.00,,FEW140,0.00,VWS V14.01,2013-07-05 05:52:00,
2013-07-05 00:55:00,80.3,63.2,29.96,SSW,202,2.0,7.0,56,0.00,,FEW250,0.00,VWS V14.01,2013-07-05 05:55:00,
2013-07-05 00:57:00,79.0,63.0,29.96,SSW,209,1.0,2.0,58,0.00,,FEW140,0.00,VWS V14.01,2013-07-05 05:57:00,
2013-07-05 01:00:00,80.2,63.1,29.96,SSW,203,0.0,7.0,56,0.00,,FEW250,0.00,VWS V14.01,2013-07-05 06:00:00,
2013-07-05 01:02:00,78.8,62.8,29.96,SSW,209,1.0,2.0,58,0.00,,CLR,0.00,VWS V14.01,2013-07-05 06:02:00,
2013-07-05 01:05:00,80.1,63.0,29.96,SE,136,1.0,5.0,56,0.00,,FEW250,0.00,VWS V14.01,2013-07-05 06:05:00,
2013-07-05 01:07:00,78.7,62.7,29.96,South,178,0.0,2.0,58,0.00,,CLR,0.00,VWS V14.01,2013-07-05 06:07:00,
2013-07-05 01:10:00,79.9,62.8,29.96,SSW,213,2.0,4.0,56,0.00,,FEW250,0.00,VWS V14.01,2013-07-05 06:10:00,
2013-07-05 01:12:00,78.5,63.0,29.96,ESE,123,0.0,1.0,59,0.00,,CLR,0.00,VWS V14.01,2013-07-05 06:12:00,
2013-07-05 01:15:00,79.9,62.8,29.96,SW,233,2.0,5.0,56,0.00,,FEW250,0.00,VWS V14.01,2013-07-05 06:15:00,
2013-07-05 01:17:00,78.3,62.8,29.96,ESE,115,0.0,0.0,59,0.00,,CLR,0.00,VWS V14.01,2013-07-05 06:17:00,
2013-07-05 01:20:00,79.9,62.8,29.96,SW,217,1.0,7.0,56,0.00,,FEW250,0.00,VWS V14.01,2013-07-05 06:20:00,
2013-07-05 01:22:00,78.1,63.1,29.96,ESE,111,0.0,1.0,60,0.00,,CLR,0.00,VWS V14.01,2013-07-05 06:22:00,
2013-07-05 01:25:00,79.8,62.7,29.96,South,180,2.0,7.0,56,0.00,,FEW250,0.00,VWS V14.01,2013-07-05 06:25:00,
2013-07-05 01:27:00,77.8,62.8,29.96,ESE,111,0.0,0.0,60,0.00,,CLR,0.00,VWS V14.01,2013-07-05 06:27:00,
2013-07-05 01:30:00,79.7,62.6,29.96,ESE,104,1.0,5.0,56,0.00,,FEW250,0.00,VWS V14.01,2013-07-05 06:30:00,
2013-07-05 01:32:00,77.5,63.0,29.96,ESE,112,0.0,0.0,61,0.00,,CLR,0.00,VWS V14.01,2013-07-05 06:32:00,
2013-07-05 01:35:00,79.6,62.5,29.96,South,190,0.0,4.0,56,0.00,,FEW250,0.00,VWS V14.01,2013-07-05 06:35:00,
2013-07-05 01:37:00,77.2,63.2,29.96,ESE,112,0.0,0.0,62,0.00,,CLR,0.00,VWS V14.01,2013-07-05 06:37:00,
2013-07-05 01:40:00,79.5,63.0,29.96,South,180,0.0,3.0,57,0.00,,FEW250,0.00,VWS V14.01,2013-07-05 06:40:00,
2013-07-05 01:42:00,76.9,63.4,29.96,ESE,112,0.0,0.0,63,0.00,,CLR,0.00,VWS V14.01,2013-07-05 06:42:00,
2013-07-05 01:45:00,79.3,62.8,29.96,South,175,3.0,3.0,57,0.00,,FEW250,0.00,VWS V14.01,2013-07-05 06:45:00,
2013-07-05 01:47:00,76.5,63.4,29.96,ESE,111,0.0,0.0,64,0.00,,CLR,0.00,VWS V14.01,2013-07-05 06:47:00,
2013-07-05 01:50:00,79.2,62.7,29.96,SSW,194,0.0,4.0,57,0.00,,FEW250,0.00,VWS V14.01,2013-07-05 06:50:00,
2013-07-05 01:52:00,76.2,63.1,29.96,ESE,111,0.0,0.0,64,0.00,,CLR,0.00,VWS V14.01,2013-07-05 06:52:00,
2013-07-05 01:55:00,79.1,63.1,29.96,SSE,157,0.0,3.0,58,0.00,,FEW250,0.00,VWS V14.01,2013-07-05 06:55:00,
2013-07-05 01:57:00,76.1,63.0,29.96,ESE,111,0.0,0.0,64,0.00,,CLR,0.00,VWS V14.01,2013-07-05 06:57:00,
2013-07-05 02:00:00,78.9,62.9,29.96,SSW,198,1.0,2.0,58,0.00,,FEW250,0.00,VWS V14.01,2013-07-05 07:00:00,
2013-07-05 02:02:00,75.8,63.2,29.96,ESE,111,0.0,0.0,65,0.00,,SCT120,0.00,VWS V14.01,2013-07-05 07:02:00,
2013-07-05 02:05:00,78.7,62.7,29.96,SSW,213,1.0,3.0,58,0.00,,FEW250,0.00,VWS V14.01,2013-07-05 07:05:00,
2013-07-05 02:07:00,75.8,63.2,29.95,SW,214,1.0,2.0,65,0.00,,SCT120,0.00,VWS V14.01,2013-07-05 07:07:00,
2013-07-05 02:10:00,78.6,63.1,29.96,SSE,148,0.0,2.0,59,0.00,,FEW250,0.00,VWS V14.01,2013-07-05 07:10:00,
2013-07-05 02:12:00,76.1,63.0,29.95,SSW,213,1.0,3.0,64,0.00,,SCT120,0.00,VWS V14.01,2013-07-05 07:12:00,
2013-07-05 02:15:00,78.4,62.9,29.96,SSE,148,0.0,2.0,59,0.00,,FEW250,0.00,VWS V14.01,2013-07-05 07:15:00,
2013-07-05 02:17:00,76.5,62.5,29.95,SE,140,2.0,4.0,62,0.00,,SCT120,0.00,VWS V14.01,2013-07-05 07:17:00,
2013-07-05 02:20:00,78.2,62.7,29.96,ESE,111,0.0,1.0,59,0.00,,FEW250,0.00,VWS V14.01,2013-07-05 07:20:00,
2013-07-05 02:22:00,77.0,62.5,29.95,South,176,0.0,3.0,61,0.00,,SCT120,0.00,VWS V14.01,2013-07-05 07:22:00,
2013-07-05 02:25:00,77.9,62.9,29.96,ESE,111,0.0,1.0,60,0.00,,FEW250,0.00,VWS V14.01,2013-07-05 07:25:00,
2013-07-05 02:27:00,77.2,62.2,29.95,SSW,211,2.0,4.0,60,0.00,,SCT120,0.00,VWS V14.01,2013-07-05 07:27:00,
2013-07-05 02:30:00,77.6,63.1,29.96,ESE,111,0.0,0.0,61,0.00,,FEW250,0.00,VWS V14.01,2013-07-05 07:30:00,
2013-07-05 02:32:00,77.2,62.7,29.95,SSW,196,2.0,2.0,61,0.00,,SCT120,0.00,VWS V14.01,2013-07-05 07:32:00,
2013-07-05 02:35:00,77.3,63.3,29.96,ESE,112,0.0,0.0,62,0.00,,FEW250,0.00,VWS V14.01,2013-07-05 07:35:00,
2013-07-05 02:37:00,77.1,62.6,29.95,SE,136,1.0,3.0,61,0.00,,SCT120,0.00,VWS V14.01,2013-07-05 07:37:00,
2013-07-05 02:40:00,77.1,63.1,29.96,ESE,111,0.0,0.0,62,0.00,,FEW250,0.00,VWS V14.01,2013-07-05 07:40:00,
2013-07-05 02:42:00,76.9,62.4,29.95,SW,214,0.0,3.0,61,0.00,,SCT120,0.00,VWS V14.01,2013-07-05 07:42:00,
2013-07-05 02:45:00,76.7,63.2,29.96,ESE,111,0.0,0.0,63,0.00,,FEW250,0.00,VWS V14.01,2013-07-05 07:45:00,
2013-07-05 02:47:00,76.9,62.4,29.95,SE,134,0.0,4.0,61,0.00,,SCT120,0.00,VWS V14.01,2013-07-05 07:47:00,
2013-07-05 02:50:00,76.3,63.2,29.96,ESE,111,0.0,0.0,64,0.00,,FEW250,0.00,VWS V14.01,2013-07-05 07:50:00,
2013-07-05 02:52:00,76.8,62.3,29.95,South,188,2.0,3.0,61,0.00,,SCT120,0.00,VWS V14.01,2013-07-05 07:52:00,
2013-07-05 02:55:00,76.1,63.0,29.96,ESE,111,0.0,0.0,64,0.00,,FEW250,0.00,VWS V14.01,2013-07-05 07:55:00,
2013-07-05 02:57:00,76.8,62.3,29.95,SSW,196,0.0,0.0,61,0.00,,SCT120,0.00,VWS V14.01,2013-07-05 07:57:00,
2013-07-05 03:00:00,76.0,63.0,29.96,ESE,111,0.0,0.0,64,0.00,,FEW250,0.00,VWS V14.01,2013-07-05 08:00:00,
2013-07-05 03:02:00,76.6,62.6,29.95,SSW,203,0.0,1.0,62,0.00,,BKN180,0.00,VWS V14.01,2013-07-05 08:02:00,
2013-07-05 03:05:00,75.7,63.1,29.95,SW,223,1.0,3.0,65,0.00,,FEW250,0.00,VWS V14.01,2013-07-05 08:05:00,
2013-07-05 03:07:00,76.4,62.4,29.95,SSW,198,0.0,1.0,62,0.00,,BKN180,0.00,VWS V14.01,2013-07-05 08:07:00,
2013-07-05 03:10:00,75.9,62.9,29.95,South,184,0.0,2.0,64,0.00,,FEW250,0.00,VWS V14.01,2013-07-05 08:10:00,
2013-07-05 03:12:00,76.2,62.2,29.95,South,169,0.0,1.0,62,0.00,,BKN180,0.00,VWS V14.01,2013-07-05 08:12:00,
2013-07-05 03:15:00,76.3,62.8,29.95,SSW,194,1.0,4.0,63,0.00,,FEW250,0.00,VWS V14.01,2013-07-05 08:15:00,
2013-07-05 03:17:00,75.9,62.4,29.95,SSE,150,0.0,0.0,63,0.00,,BKN180,0.00,VWS V14.01,2013-07-05 08:17:00,
2013-07-05 03:20:00,76.8,62.3,29.95,ESE,105,0.0,6.0,61,0.00,,FEW250,0.00,VWS V14.01,2013-07-05 08:20:00,
2013-07-05 03:22:00,75.7,62.2,29.95,SE,136,0.0,0.0,63,0.00,,BKN180,0.00,VWS V14.01,2013-07-05 08:22:00,
2013-07-05 03:25:00,77.1,62.2,29.95,SSE,166,2.0,4.0,60,0.00,,FEW250,0.00,VWS V14.01,2013-07-05 08:25:00,
2013-07-05 03:27:00,75.5,62.0,29.95,South,175,0.0,1.0,63,0.00,,BKN180,0.00,VWS V14.01,2013-07-05 08:27:00,
2013-07-05 03:30:00,77.2,62.2,29.95,SSE,159,0.0,4.0,60,0.00,,FEW250,0.00,VWS V14.01,2013-07-05 08:30:00,
2013-07-05 03:32:00,75.4,61.9,29.95,South,175,0.0,0.0,63,0.00,,BKN180,0.00,VWS V14.01,2013-07-05 08:32:00,
2013-07-05 03:35:00,77.1,62.6,29.95,SSW,213,3.0,3.0,61,0.00,,FEW250,0.00,VWS V14.01,2013-07-05 08:35:00,
2013-07-05 03:37:00,75.3,62.3,29.95,South,177,0.0,0.0,64,0.00,,BKN180,0.00,VWS V14.01,2013-07-05 08:37:00,
2013-07-05 03:40:00,77.0,62.5,29.95,SE,141,0.0,3.0,61,0.00,,FEW250,0.00,VWS V14.01,2013-07-05 08:40:00,
2013-07-05 03:42:00,75.2,62.2,29.94,SSE,167,0.0,0.0,64,0.00,,BKN180,0.00,VWS V14.01,2013-07-05 08:42:00,
2013-07-05 03:45:00,76.9,62.4,29.94,SW,219,0.0,3.0,61,0.00,,FEW250,0.00,VWS V14.01,2013-07-05 08:45:00,
2013-07-05 03:47:00,75.0,62.0,29.95,South,171,0.0,0.0,64,0.00,,BKN180,0.00,VWS V14.01,2013-07-05 08:47:00,
2013-07-05 03:50:00,76.9,62.4,29.95,SW,219,0.0,4.0,61,0.00,,FEW250,0.00,VWS V14.01,2013-07-05 08:50:00,
2013-07-05 03:52:00,74.9,61.9,29.95,SW,224,0.0,1.0,64,0.00,,BKN180,0.00,VWS V14.01,2013-07-05 08:52:00,
2013-07-05 03:55:00,76.8,62.3,29.95,SSE,152,0.0,3.0,61,0.00,,FEW250,0.00,VWS V14.01,2013-07-05 08:55:00,
2013-07-05 03:58:00,74.9,61.9,29.95,SE,132,0.0,1.0,64,0.00,,BKN180,0.00,VWS V14.01,2013-07-05 08:58:00,
2013-07-05 04:00:00,76.7,62.2,29.95,ESE,121,0.0,0.0,61,0.00,,FEW250,0.00,VWS V14.01,2013-07-05 09:00:00,
2013-07-05 04:03:00,74.9,61.9,29.95,SE,132,0.0,0.0,64,0.00,,BKN180,0.00,VWS V14.01,2013-07-05 09:03:00,
2013-07-05 04:05:00,76.5,62.5,29.95,SSW,205,0.0,1.0,62,0.00,,FEW250,0.00,VWS V14.01,2013-07-05 09:05:00,
2013-07-05 04:08:00,75.0,62.0,29.94,South,171,2.0,2.0,64,0.00,,BKN180,0.00,VWS V14.01,2013-07-05 09:08:00,
2013-07-05 04:10:00,76.3,62.3,29.95,SSW,198,0.0,1.0,62,0.00,,FEW250,0.00,VWS V14.01,2013-07-05 09:10:00,
2013-07-05 04:13:00,75.2,61.8,29.94,ESE,119,1.0,3.0,63,0.00,,BKN180,0.00,VWS V14.01,2013-07-05 09:13:00,
2013-07-05 04:15:00,76.1,62.2,29.95,South,169,0.0,1.0,62,0.00,,FEW250,0.00,VWS V14.01,2013-07-05 09:15:00,
2013-07-05 04:18:00,75.3,61.8,29.94,SE,127,0.0,2.0,63,0.00,,BKN180,0.00,VWS V14.01,2013-07-05 09:18:00,
2013-07-05 04:20:00,75.8,62.3,29.95,SE,136,0.0,1.0,63,0.00,,FEW250,0.00,VWS V14.01,2013-07-05 09:20:00,
2013-07-05 04:23:00,75.4,61.9,29.94,South,188,0.0,2.0,63,0.00,,BKN180,0.00,VWS V14.01,2013-07-05 09:23:00,
2013-07-05 04:25:00,75.7,62.2,29.95,SE,136,0.0,1.0,63,0.00,,FEW250,0.00,VWS V14.01,2013-07-05 09:25:00,
2013-07-05 04:28:00,75.4,61.9,29.95,SE,132,0.0,0.0,63,0.00,,BKN180,0.00,VWS V14.01,2013-07-05 09:28:00,
2013-07-05 04:30:00,75.5,62.0,29.95,South,175,0.0,1.0,63,0.00,,FEW250,0.00,VWS V14.01,2013-07-05 09:30:00,
2013-07-05 04:34:00,75.3,61.8,29.95,SSE,165,0.0,0.0,63,0.00,,BKN180,0.00,VWS V14.01,2013-07-05 09:34:00,
2013-07-05 04:35:00,75.3,61.8,29.95,South,175,0.0,0.0,63,0.00,,FEW250,0.00,VWS V14.01,2013-07-05 09:35:00,
2013-07-05 04:39:00,75.2,61.8,29.95,SSE,167,0.0,0.0,63,0.00,,BKN180,0.00,VWS V14.01,2013-07-05 09:39:00,
2013-07-05 04:40:00,75.3,62.3,29.95,South,176,0.0,0.0,64,0.00,,FEW250,0.00,VWS V14.01,2013-07-05 09:40:00,
2013-07-05 04:45:00,75.0,62.0,29.95,SSE,167,0.0,0.0,64,0.00,,BKN180,0.00,VWS V14.01,2013-07-05 09:45:00,
2013-07-05 04:50:00,74.9,61.5,29.95,SSW,199,0.0,0.0,63,0.00,,BKN180,0.00,VWS V14.01,2013-07-05 09:50:00,
2013-07-05 04:55:00,74.8,61.4,29.95,SSE,156,0.0,0.0,63,0.00,,BKN180,0.00,VWS V14.01,2013-07-05 09:55:00,
2013-07-05 05:00:00,74.7,61.7,29.94,SSE,156,0.0,0.0,64,0.00,,BKN180,0.00,VWS V14.01,2013-07-05 10:00:00,
2013-07-05 05:05:00,74.6,61.6,29.95,ESE,117,0.0,0.0,64,0.00,,BKN180,0.00,VWS V14.01,2013-07-05 10:05:00,
2013-07-05 05:10:00,74.6,62.1,29.95,ESE,117,0.0,0.0,65,0.00,,BKN180,0.00,VWS V14.01,2013-07-05 10:10:00,
2013-07-05 05:15:00,75.2,61.8,29.94,SSW,209,0.0,3.0,63,0.00,,FEW250,0.00,VWS V14.01,2013-07-05 10:15:00,
2013-07-05 05:16:00,74.5,62.0,29.95,ESE,117,0.0,0.0,65,0.00,,BKN180,0.00,VWS V14.01,2013-07-05 10:16:00,
2013-07-05 05:20:00,75.4,61.9,29.94,SE,135,0.0,2.0,63,0.00,,FEW250,0.00,VWS V14.01,2013-07-05 10:20:00,
2013-07-05 05:21:00,74.2,61.2,29.95,ESE,117,0.0,0.0,64,0.00,,BKN180,0.00,VWS V14.01,2013-07-05 10:21:00,
2013-07-05 05:25:00,75.4,61.9,29.94,SE,129,0.0,2.0,63,0.00,,FEW250,0.00,VWS V14.01,2013-07-05 10:25:00,
2013-07-05 05:26:00,73.9,61.0,29.95,ESE,120,0.0,0.0,64,0.00,,BKN180,0.00,VWS V14.01,2013-07-05 10:26:00,
2013-07-05 05:30:00,75.3,61.8,29.95,SSE,165,0.0,0.0,63,0.00,,FEW250,0.00,VWS V14.01,2013-07-05 10:30:00,
2013-07-05 05:31:00,73.7,61.2,29.95,ESE,121,0.0,1.0,65,0.00,,BKN180,0.00,VWS V14.01,2013-07-05 10:31:00,
2013-07-05 05:35:00,75.3,61.8,29.95,SSE,165,0.0,0.0,63,0.00,,FEW250,0.00,VWS V14.01,2013-07-05 10:35:00,
2013-07-05 05:36:00,73.5,61.0,29.95,ESE,121,0.0,0.0,65,0.00,,BKN180,0.00,VWS V14.01,2013-07-05 10:36:00,
2013-07-05 05:40:00,75.2,61.8,29.95,SSE,167,0.0,0.0,63,0.00,,FEW250,0.00,VWS V14.01,2013-07-05 10:40:00,
2013-07-05 05:41:00,73.3,60.8,29.95,ESE,121,0.0,0.0,65,0.00,,BKN180,0.00,VWS V14.01,2013-07-05 10:41:00,
2013-07-05 05:45:00,75.0,62.0,29.95,SSE,167,0.0,0.0,64,0.00,,FEW250,0.00,VWS V14.01,2013-07-05 10:45:00,
2013-07-05 05:46:00,73.0,60.5,29.95,ESE,121,0.0,0.0,65,0.00,,BKN180,0.00,VWS V14.01,2013-07-05 10:46:00,
2013-07-05 05:50:00,74.9,61.5,29.95,SSW,199,0.0,2.0,63,0.00,,FEW250,0.00,VWS V14.01,2013-07-05 10:50:00,
2013-07-05 05:52:00,72.7,60.3,29.95,ESE,121,0.0,0.0,65,0.00,,BKN180,0.00,VWS V14.01,2013-07-05 10:52:00,
2013-07-05 05:55:00,74.8,61.4,29.95,SSE,155,0.0,1.0,63,0.00,,FEW250,0.00,VWS V14.01,2013-07-05 10:55:00,
2013-07-05 05:57:00,72.4,60.8,29.95,ESE,121,0.0,0.0,67,0.00,,BKN180,0.00,VWS V14.01,2013-07-05 10:57:00,
2013-07-05 06:00:00,74.7,61.7,29.95,SSE,157,0.0,0.0,64,0.00,,FEW250,0.00,VWS V14.01,2013-07-05 11:00:00,
2013-07-05 06:02:00,72.1,60.1,29.95,ESE,121,0.0,0.0,66,0.00,,SCT250,0.00,VWS V14.01,2013-07-05 11:02:00,
2013-07-05 06:05:00,74.6,61.6,29.95,SE,141,0.0,1.0,64,0.00,,FEW250,0.00,VWS V14.01,2013-07-05 11:05:00,
2013-07-05 06:07:00,72.0,60.5,29.96,ESE,121,0.0,0.0,67,0.00,,SCT250,0.00,VWS V14.01,2013-07-05 11:07:00,
2013-07-05 06:10:00,74.6,61.6,29.95,ESE,117,0.0,0.0,64,0.00,,FEW250,0.00,VWS V14.01,2013-07-05 11:10:00,
2013-07-05 06:12:00,71.9,60.4,29.96,ESE,121,0.0,0.0,67,0.00,,SCT250,0.00,VWS V14.01,2013-07-05 11:12:00,
2013-07-05 06:15:00,74.5,62.0,29.95,ESE,117,0.0,0.0,65,0.00,,FEW250,0.00,VWS V14.01,2013-07-05 11:15:00,
2013-07-05 06:17:00,71.9,60.4,29.96,SE,128,0.0,1.0,67,0.00,,SCT250,0.00,VWS V14.01,2013-07-05 11:17:00,
2013-07-05 06:20:00,74.3,61.8,29.95,ESE,117,0.0,1.0,65,0.00,,FEW250,0.00,VWS V14.01,2013-07-05 11:20:00,
2013-07-05 06:23:00,72.0,60.5,29.96,SE,128,0.0,0.0,67,0.00,,SCT250,0.00,VWS V14.01,2013-07-05 11:23:00,
2013-07-05 06:25:00,74.0,61.1,29.95,ESE,120,0.0,1.0,64,0.00,,FEW250,0.00,VWS V14.01,2013-07-05 11:25:00,
2013-07-05 06:28:00,72.2,60.7,29.96,SE,128,0.0,0.0,67,0.00,,SCT250,0.00,VWS V14.01,2013-07-05 11:28:00,
2013-07-05 06:30:00,73.7,61.2,29.95,ESE,120,0.0,0.0,65,0.00,,FEW250,0.00,VWS V14.01,2013-07-05 11:30:00,
2013-07-05 06:33:00,72.3,60.7,29.96,SE,128,0.0,0.0,67,0.00,,SCT250,0.00,VWS V14.01,2013-07-05 11:33:00,
2013-07-05 06:35:00,73.6,60.7,29.95,ESE,121,0.0,1.0,64,0.00,,FEW250,0.00,VWS V14.01,2013-07-05 11:35:00,
2013-07-05 06:38:00,72.4,60.4,29.96,SE,128,0.0,0.0,66,0.00,,SCT250,0.00,VWS V14.01,2013-07-05 11:38:00,
2013-07-05 06:40:00,73.4,60.5,29.95,ESE,121,0.0,0.0,64,0.00,,FEW250,0.00,VWS V14.01,2013-07-05 11:40:00,
2013-07-05 06:43:00,72.6,60.6,29.96,SE,128,0.0,0.0,66,0.00,,SCT250,0.00,VWS V14.01,2013-07-05 11:43:00,
2013-07-05 06:45:00,73.1,60.7,29.95,ESE,121,0.0,0.0,65,0.00,,FEW250,0.00,VWS V14.01,2013-07-05 11:45:00,
2013-07-05 06:48:00,72.7,60.7,29.95,SE,137,0.0,1.0,66,0.00,,SCT250,0.00,VWS V14.01,2013-07-05 11:48:00,
2013-07-05 06:50:00,72.8,60.4,29.95,ESE,121,0.0,0.0,65,0.00,,FEW250,0.00,VWS V14.01,2013-07-05 11:50:00,
2013-07-05 06:53:00,72.9,60.9,29.96,SSE,165,0.0,0.0,66,0.00,,SCT250,0.00,VWS V14.01,2013-07-05 11:53:00,
2013-07-05 06:55:00,72.5,60.9,29.95,ESE,121,0.0,0.0,67,0.00,,FEW250,0.00,VWS V14.01,2013-07-05 11:55:00,
2013-07-05 06:58:00,73.0,61.0,29.96,SSE,165,0.0,0.0,66,0.00,,SCT250,0.00,VWS V14.01,2013-07-05 11:58:00,
2013-07-05 07:00:00,72.3,60.7,29.95,ESE,121,0.0,0.0,67,0.00,,FEW250,0.00,VWS V14.01,2013-07-05 12:00:00,
2013-07-05 07:03:00,73.1,61.1,29.96,SSE,166,0.0,0.0,66,0.00,,BKN250,0.00,VWS V14.01,2013-07-05 12:03:00,
2013-07-05 07:05:00,72.0,60.5,29.96,ESE,121,0.0,0.0,67,0.00,,FEW250,0.00,VWS V14.01,2013-07-05 12:05:00,
2013-07-05 07:09:00,73.2,61.6,29.96,SSE,166,0.0,0.0,67,0.00,,BKN250,0.00,VWS V14.01,2013-07-05 12:09:00,
2013-07-05 07:10:00,72.0,60.5,29.96,ESE,121,0.0,0.0,67,0.00,,FEW250,0.00,VWS V14.01,2013-07-05 12:10:00,
2013-07-05 07:14:00,73.5,61.9,29.97,SSE,166,0.0,0.0,67,0.00,,BKN250,0.00,VWS V14.01,2013-07-05 12:14:00,
2013-07-05 07:15:00,71.9,60.4,29.96,ESE,121,0.0,0.0,67,0.00,,FEW250,0.00,VWS V14.01,2013-07-05 12:15:00,
2013-07-05 07:19:00,74.0,61.9,29.97,SSE,165,0.0,0.0,66,0.00,,BKN250,0.00,VWS V14.01,2013-07-05 12:19:00,
2013-07-05 07:20:00,71.9,60.4,29.96,SE,128,0.0,1.0,67,0.00,,FEW250,0.00,VWS V14.01,2013-07-05 12:20:00,
2013-07-05 07:24:00,74.7,62.6,29.97,SSE,165,0.0,0.0,66,0.00,,BKN250,0.00,VWS V14.01,2013-07-05 12:24:00,
2013-07-05 07:25:00,72.1,60.5,29.96,SE,128,0.0,0.0,67,0.00,,FEW250,0.00,VWS V14.01,2013-07-05 12:25:00,
2013-07-05 07:29:00,75.6,63.0,29.97,SE,130,0.0,0.0,65,0.00,,BKN250,0.00,VWS V14.01,2013-07-05 12:29:00,
2013-07-05 07:30:00,72.2,60.7,29.96,SE,128,0.0,0.0,67,0.00,,FEW250,0.00,VWS V14.01,2013-07-05 12:30:00,
2013-07-05 07:34:00,76.2,63.1,29.98,East,81,0.0,0.0,64,0.00,,BKN250,0.00,VWS V14.01,2013-07-05 12:34:00,
2013-07-05 07:35:00,72.3,60.7,29.96,SE,128,0.0,0.0,67,0.00,,FEW250,0.00,VWS V14.01,2013-07-05 12:35:00,
2013-07-05 07:39:00,76.7,63.2,29.98,East,81,0.0,0.0,63,0.00,,BKN250,0.00,VWS V14.01,2013-07-05 12:39:00,
2013-07-05 07:40:00,72.5,60.5,29.96,SE,128,0.0,0.0,66,0.00,,FEW250,0.00,VWS V14.01,2013-07-05 12:40:00,
2013-07-05 07:44:00,77.3,63.7,29.98,SSE,163,0.0,1.0,63,0.00,,BKN250,0.00,VWS V14.01,2013-07-05 12:44:00,
2013-07-05 07:45:00,72.6,60.6,29.96,SE,128,0.0,0.0,66,0.00,,FEW250,0.00,VWS V14.01,2013-07-05 12:45:00,
2013-07-05 07:50:00,78.1,64.0,29.98,SSE,163,0.0,0.0,62,0.00,,BKN250,0.00,VWS V14.01,2013-07-05 12:50:00,
2013-07-05 07:55:00,78.6,64.0,29.98,SSW,198,0.0,1.0,61,0.00,,BKN250,0.00,VWS V14.01,2013-07-05 12:55:00,
2013-07-05 08:00:00,78.9,64.3,29.98,SW,215,0.0,3.0,61,0.00,,BKN250,0.00,VWS V14.01,2013-07-05 13:00:00,
2013-07-05 08:05:00,79.2,64.1,29.98,NE,51,0.0,1.0,60,0.00,,BKN250,0.00,VWS V14.01,2013-07-05 13:05:00,
2013-07-05 08:10:00,78.6,64.0,29.98,NE,55,0.0,2.0,61,0.00,,BKN250,0.00,VWS V14.01,2013-07-05 13:10:00,
2013-07-05 08:15:00,79.1,64.5,29.98,SSE,163,1.0,1.0,61,0.00,,BKN250,0.00,VWS V14.01,2013-07-05 13:15:00,
2013-07-05 08:20:00,80.0,64.4,29.99,SSW,200,1.0,2.0,59,0.00,,BKN250,0.00,VWS V14.01,2013-07-05 13:20:00,
2013-07-05 08:25:00,80.2,64.6,29.99,SSE,167,1.0,2.0,59,0.00,,BKN250,0.00,VWS V14.01,2013-07-05 13:25:00,
2013-07-05 08:30:00,80.8,65.2,29.99,NE,47,2.0,2.0,59,0.00,,BKN250,0.00,VWS V14.01,2013-07-05 13:30:00,
2013-07-05 08:35:00,76.4,62.9,29.98,East,81,0.0,0.0,63,0.00,,FEW250,0.00,VWS V14.01,2013-07-05 13:35:00,
2013-07-05 08:36:00,79.9,64.8,29.99,ENE,63,0.0,0.0,60,0.00,,BKN250,0.00,VWS V14.01,2013-07-05 13:36:00,
2013-07-05 08:40:00,76.8,63.3,29.98,East,81,0.0,0.0,63,0.00,,FEW250,0.00,VWS V14.01,2013-07-05 13:40:00,
2013-07-05 08:41:00,79.3,64.7,29.99,ENE,61,0.0,0.0,61,0.00,,BKN250,0.00,VWS V14.01,2013-07-05 13:41:00,
2013-07-05 08:45:00,77.4,63.4,29.98,SSE,163,0.0,1.0,62,0.00,,FEW250,0.00,VWS V14.01,2013-07-05 13:45:00,
2013-07-05 08:46:00,79.6,65.0,30.00,ENE,61,0.0,0.0,61,0.00,,BKN250,0.00,VWS V14.01,2013-07-05 13:46:00,
2013-07-05 08:50:00,78.1,64.0,29.98,SSE,163,0.0,0.0,62,0.00,,FEW250,0.00,VWS V14.01,2013-07-05 13:50:00,
2013-07-05 08:51:00,80.6,65.0,30.00,NE,53,0.0,1.0,59,0.00,,BKN250,0.00,VWS V14.01,2013-07-05 13:51:00,
2013-07-05 08:55:00,78.6,64.0,29.98,SSW,198,0.0,1.0,61,0.00,,FEW250,0.00,VWS V14.01,2013-07-05 13:55:00,
2013-07-05 08:56:00,80.9,65.2,30.00,ENE,57,1.0,2.0,59,0.00,,BKN250,0.00,VWS V14.01,2013-07-05 13:56:00,
2013-07-05 09:00:00,78.9,64.3,29.98,SW,215,0.0,3.0,61,0.00,,FEW250,0.00,VWS V14.01,2013-07-05 14:00:00,
2013-07-05 09:02:00,81.6,65.4,30.00,ENE,57,0.0,1.0,58,0.00,,SCT250,0.00,VWS V14.01,2013-07-05 14:02:00,
2013-07-05 09:05:00,79.2,64.1,29.98,NE,51,0.0,1.0,60,0.00,,FEW250,0.00,VWS V14.01,2013-07-05 14:05:00,
2013-07-05 09:07:00,82.5,65.8,30.00,ESE,114,0.0,1.0,57,0.00,,SCT250,0.00,VWS V14.01,2013-07-05 14:07:00,
2013-07-05 09:10:00,78.6,64.0,29.98,NE,55,0.0,2.0,61,0.00,,FEW250,0.00,VWS V14.01,2013-07-05 14:10:00,
2013-07-05 09:12:00,83.6,65.7,30.00,ENE,58,0.0,2.0,55,0.00,,SCT250,0.00,VWS V14.01,2013-07-05 14:12:00,
2013-07-05 09:15:00,79.0,64.9,29.98,ESE,118,0.0,1.0,62,0.00,,FEW250,0.00,VWS V14.01,2013-07-05 14:15:00,
2013-07-05 09:17:00,84.0,66.1,30.00,ENE,70,0.0,0.0,55,0.00,,SCT250,0.00,VWS V14.01,2013-07-05 14:17:00,
2013-07-05 09:20:00,79.9,64.8,29.99,South,182,2.0,2.0,60,0.00,,FEW250,0.00,VWS V14.01,2013-07-05 14:20:00,
2013-07-05 09:22:00,83.9,65.5,30.00,ENE,77,0.0,3.0,54,0.00,,SCT250,0.00,VWS V14.01,2013-07-05 14:22:00,
2013-07-05 09:25:00,80.2,64.6,29.99,SSE,155,0.0,2.0,59,0.00,,FEW250,0.00,VWS V14.01,2013-07-05 14:25:00,
2013-07-05 09:27:00,83.7,65.8,30.00,SSW,211,1.0,1.0,55,0.00,,SCT250,0.00,VWS V14.01,2013-07-05 14:27:00,
2013-07-05 09:30:00,80.7,65.5,29.99,SSE,160,0.0,2.0,60,0.00,,FEW250,0.00,VWS V14.01,2013-07-05 14:30:00,
2013-07-05 09:32:00,84.5,65.5,30.00,SW,222,0.0,2.0,53,0.00,,SCT250,0.00,VWS V14.01,2013-07-05 14:32:00,
2013-07-05 09:35:00,80.1,65.0,30.00,ENE,63,0.0,3.0,60,0.00,,FEW250,0.00,VWS V14.01,2013-07-05 14:35:00,
2013-07-05 09:37:00,85.0,65.4,30.00,SSW,200,0.0,3.0,52,0.00,,SCT250,0.00,VWS V14.01,2013-07-05 14:37:00,
2013-07-05 09:40:00,79.3,64.7,29.99,ENE,61,0.0,1.0,61,0.00,,FEW250,0.00,VWS V14.01,2013-07-05 14:40:00,
2013-07-05 09:43:00,86.3,65.5,30.00,South,188,0.0,2.0,50,0.00,,SCT250,0.00,VWS V14.01,2013-07-05 14:43:00,
2013-07-05 09:45:00,79.3,64.7,30.00,ENE,61,0.0,0.0,61,0.00,,FEW250,0.00,VWS V14.01,2013-07-05 14:45:00,
2013-07-05 09:49:00,87.0,65.0,29.99,South,183,2.0,4.0,48,0.00,,SCT250,0.00,VWS V14.01,2013-07-05 14:49:00,
2013-07-05 09:50:00,80.3,65.2,30.00,ENE,58,0.0,1.0,60,0.00,,FEW250,0.00,VWS V14.01,2013-07-05 14:50:00,
2013-07-05 09:54:00,86.9,65.5,29.99,SSW,209,1.0,3.0,49,0.00,,SCT250,0.00,VWS V14.01,2013-07-05 14:54:00,
2013-07-05 09:55:00,80.8,65.2,30.00,NE,53,0.0,1.0,59,0.00,,FEW250,0.00,VWS V14.01,2013-07-05 14:55:00,
2013-07-05 09:59:00,87.3,65.2,29.99,SSW,199,3.0,4.0,48,0.00,,SCT250,0.00,VWS V14.01,2013-07-05 14:59:00,
2013-07-05 10:00:00,81.3,65.6,30.00,ENE,78,0.0,2.0,59,0.00,,FEW250,0.00,VWS V14.01,2013-07-05 15:00:00,
2013-07-05 10:04:00,87.3,64.6,29.99,SSW,200,0.0,3.0,47,0.00,,FEW250,0.00,VWS V14.01,2013-07-05 15:04:00,
2013-07-05 10:05:00,82.1,65.4,30.00,ESE,114,0.0,1.0,57,0.00,,FEW250,0.00,VWS V14.01,2013-07-05 15:05:00,
2013-07-05 10:09:00,87.4,64.1,29.99,SSW,205,3.0,5.0,46,0.00,,FEW250,0.00,VWS V14.01,2013-07-05 15:09:00,
2013-07-05 10:10:00,83.3,65.5,30.00,SSE,164,0.0,1.0,55,0.00,,FEW250,0.00,VWS V14.01,2013-07-05 15:10:00,
2013-07-05 10:14:00,87.5,64.8,29.99,SSE,157,1.0,3.0,47,0.00,,FEW250,0.00,VWS V14.01,2013-07-05 15:14:00,
2013-07-05 10:15:00,83.7,65.8,30.00,ENE,67,0.0,2.0,55,0.00,,FEW250,0.00,VWS V14.01,2013-07-05 15:15:00,
2013-07-05 10:19:00,87.6,64.3,29.99,South,188,0.0,4.0,46,0.00,,FEW250,0.00,VWS V14.01,2013-07-05 15:19:00,
2013-07-05 10:20:00,84.3,65.3,30.00,NE,51,1.0,2.0,53,0.00,,FEW250,0.00,VWS V14.01,2013-07-05 15:20:00,
2013-07-05 10:24:00,88.1,65.3,29.99,SSW,198,1.0,2.0,47,0.00,,FEW250,0.00,VWS V14.01,2013-07-05 15:24:00,
2013-07-05 10:25:00,83.5,65.1,30.00,South,169,1.0,3.0,54,0.00,,FEW250,0.00,VWS V14.01,2013-07-05 15:25:00,
2013-07-05 10:29:00,88.3,64.3,29.99,SSW,206,1.0,4.0,45,0.00,,FEW250,0.00,VWS V14.01,2013-07-05 15:29:00,
2013-07-05 10:30:00,84.1,65.1,30.00,SSW,211,0.0,1.0,53,0.00,,FEW250,0.00,VWS V14.01,2013-07-05 15:30:00,
2013-07-05 10:35:00,88.6,65.8,29.98,South,186,3.0,3.0,47,0.00,,FEW250,0.00,VWS V14.01,2013-07-05 15:35:00,
2013-07-05 10:40:00,88.6,65.2,29.98,WSW,250,0.0,4.0,46,0.00,,FEW250,0.00,VWS V14.01,2013-07-05 15:40:00,
2013-07-05 10:44:00,88.9,64.8,29.98,South,182,1.0,3.0,45,0.00,,FEW250,0.00,VWS V14.01,2013-07-05 15:44:00,
2013-07-05 10:45:00,86.5,65.1,30.00,SSE,159,0.0,2.0,49,0.00,,FEW250,0.00,VWS V14.01,2013-07-05 15:45:00,
2013-07-05 10:49:00,88.8,65.4,29.98,SSE,168,0.0,4.0,46,0.00,,FEW250,0.00,VWS V14.01,2013-07-05 15:49:00,
2013-07-05 10:50:00,88.8,65.4,29.98,SSE,157,0.0,4.0,46,0.00,,FEW250,0.00,VWS V14.01,2013-07-05 15:50:00,
2013-07-05 10:55:00,89.2,65.1,29.98,SW,217,0.0,4.0,45,0.00,,FEW250,0.00,VWS V14.01,2013-07-05 15:55:00,
2013-07-05 11:00:00,89.5,64.1,29.98,South,182,2.0,5.0,43,0.00,,CLR,0.00,VWS V14.01,2013-07-05 16:00:00,
2013-07-05 11:05:00,89.8,63.7,29.98,SW,222,2.0,4.0,42,0.00,,CLR,0.00,VWS V14.01,2013-07-05 16:05:00,
2013-07-05 11:10:00,90.1,63.9,29.98,SSW,207,3.0,5.0,42,0.00,,CLR,0.00,VWS V14.01,2013-07-05 16:10:00,
2013-07-05 11:15:00,90.2,63.3,29.98,SE,130,0.0,7.0,41,0.00,,CLR,0.00,VWS V14.01,2013-07-05 16:15:00,
2013-07-05 11:20:00,90.4,64.2,29.98,SSW,213,3.0,5.0,42,0.00,,CLR,0.00,VWS V14.01,2013-07-05 16:20:00,
2013-07-05 11:25:00,90.9,64.0,29.98,SSW,202,3.0,4.0,41,0.00,,CLR,0.00,VWS V14.01,2013-07-05 16:25:00,
2013-07-05 11:30:00,91.0,63.3,29.98,SW,219,2.0,7.0,40,0.00,,CLR,0.00,VWS V14.01,2013-07-05 16:30:00,
2013-07-05 11:35:00,91.2,64.2,29.97,South,186,1.0,4.0,41,0.00,,CLR,0.00,VWS V14.01,2013-07-05 16:35:00,
2013-07-05 11:40:00,92.0,64.9,29.97,SSE,158,1.0,4.0,41,0.00,,CLR,0.00,VWS V14.01,2013-07-05 16:40:00,
2013-07-05 11:45:00,92.5,64.7,29.97,South,187,2.0,4.0,40,0.00,,CLR,0.00,VWS V14.01,2013-07-05 16:45:00,
2013-07-05 11:50:00,92.3,63.8,29.98,SSW,207,1.0,8.0,39,0.00,,CLR,0.00,VWS V14.01,2013-07-05 16:50:00,
2013-07-05 11:55:00,92.6,63.3,29.97,SSW,206,0.0,4.0,38,0.00,,CLR,0.00,VWS V14.01,2013-07-05 16:55:00,
2013-07-05 12:00:00,92.7,63.4,29.97,SW,214,2.0,5.0,38,0.00,,CLR,0.00,VWS V14.01,2013-07-05 17:00:00,
2013-07-05 12:05:00,92.8,63.5,29.97,SW,226,2.0,7.0,38,0.00,,CLR,0.00,VWS V14.01,2013-07-05 17:05:00,
2013-07-05 12:10:00,93.0,63.7,29.97,SE,134,0.0,6.0,38,0.00,,CLR,0.00,VWS V14.01,2013-07-05 17:10:00,
2013-07-05 12:15:00,93.3,63.9,29.97,South,178,3.0,7.0,38,0.00,,CLR,0.00,VWS V14.01,2013-07-05 17:15:00,
2013-07-05 12:20:00,93.6,63.4,29.96,SSE,166,3.0,4.0,37,0.00,,CLR,0.00,VWS V14.01,2013-07-05 17:20:00,
2013-07-05 12:25:00,93.7,64.3,29.96,SSW,210,1.0,5.0,38,0.00,,CLR,0.00,VWS V14.01,2013-07-05 17:25:00,
2013-07-05 12:30:00,93.7,64.3,29.96,SSE,168,4.0,7.0,38,0.00,,CLR,0.00,VWS V14.01,2013-07-05 17:30:00,
2013-07-05 12:35:00,93.7,64.3,29.96,ESE,115,2.0,6.0,38,0.00,,CLR,0.00,VWS V14.01,2013-07-05 17:35:00,
2013-07-05 12:40:00,94.2,64.0,29.96,West,271,1.0,7.0,37,0.00,,CLR,0.00,VWS V14.01,2013-07-05 17:40:00,
2013-07-05 12:45:00,94.8,63.7,29.96,ESE,107,1.0,5.0,36,0.00,,CLR,0.00,VWS V14.01,2013-07-05 17:45:00,
2013-07-05 12:50:00,94.8,63.7,29.96,SSE,165,0.0,5.0,36,0.00,,CLR,0.00,VWS V14.01,2013-07-05 17:50:00,
2013-07-05 12:55:00,95.2,64.8,29.95,SE,137,6.0,6.0,37,0.00,,CLR,0.00,VWS V14.01,2013-07-05 17:55:00,
2013-07-05 13:00:00,95.1,64.8,29.95,SW,221,0.0,6.0,37,0.00,,FEW070,0.00,VWS V14.01,2013-07-05 18:00:00,
2013-07-05 13:05:00,95.4,64.2,29.95,ENE,69,1.0,5.0,36,0.00,,FEW070,0.00,VWS V14.01,2013-07-05 18:05:00,
2013-07-05 13:10:00,95.5,64.3,29.94,South,176,1.0,7.0,36,0.00,,FEW070,0.00,VWS V14.01,2013-07-05 18:10:00,
2013-07-05 13:15:00,95.6,63.6,29.95,SW,215,2.0,7.0,35,0.00,,FEW070,0.00,VWS V14.01,2013-07-05 18:15:00,
2013-07-05 13:20:00,95.5,63.5,29.94,South,173,3.0,5.0,35,0.00,,FEW070,0.00,VWS V14.01,2013-07-05 18:20:00,
2013-07-05 13:25:00,95.6,63.6,29.95,SSE,159,1.0,6.0,35,0.00,,FEW070,0.00,VWS V14.01,2013-07-05 18:25:00,
2013-07-05 13:30:00,95.7,62.0,29.94,SSE,165,0.0,6.0,33,0.00,,FEW070,0.00,VWS V14.01,2013-07-05 18:30:00,
2013-07-05 13:35:00,96.4,63.5,29.94,East,92,0.0,4.0,34,0.00,,FEW070,0.00,VWS V14.01,2013-07-05 18:35:00,
2013-07-05 13:40:00,96.6,61.9,29.94,ESE,109,1.0,5.0,32,0.00,,FEW070,0.00,VWS V14.01,2013-07-05 18:40:00,
2013-07-05 13:45:00,96.9,62.2,29.94,SSE,167,2.0,3.0,32,0.00,,FEW070,0.00,VWS V14.01,2013-07-05 18:45:00,
2013-07-05 13:50:00,97.3,62.5,29.94,ESE,122,2.0,4.0,32,0.00,,FEW070,0.00,VWS V14.01,2013-07-05 18:50:00,
2013-07-05 13:55:00,96.5,61.0,29.93,SW,214,3.0,3.0,31,0.00,,FEW070,0.00,VWS V14.01,2013-07-05 18:55:00,
2013-07-05 14:00:00,96.5,60.0,29.93,SSE,157,2.0,3.0,30,0.00,,FEW250,0.00,VWS V14.01,2013-07-05 19:00:00,
2013-07-05 14:05:00,96.7,63.7,29.93,WSW,257,0.0,0.0,34,0.00,,FEW250,0.00,VWS V14.01,2013-07-05 19:05:00,
2013-07-05 14:10:00,97.4,60.8,29.93,SW,229,2.0,3.0,30,0.00,,FEW250,0.00,VWS V14.01,2013-07-05 19:10:00,
2013-07-05 14:15:00,97.7,61.0,29.92,East,82,2.0,4.0,30,0.00,,FEW250,0.00,VWS V14.01,2013-07-05 19:15:00,
2013-07-05 14:20:00,97.8,61.1,29.93,ENE,57,1.0,1.0,30,0.00,,FEW250,0.00,VWS V14.01,2013-07-05 19:20:00,
2013-07-05 14:25:00,98.0,62.2,29.92,SSW,200,1.0,2.0,31,0.00,,FEW250,0.00,VWS V14.01,2013-07-05 19:25:00,
2013-07-05 14:30:00,97.8,62.1,29.92,SSW,207,1.0,4.0,31,0.00,,FEW250,0.00,VWS V14.01,2013-07-05 19:30:00,
2013-07-05 14:35:00,97.3,62.5,29.92,SSW,209,3.0,4.0,32,0.00,,FEW250,0.00,VWS V14.01,2013-07-05 19:35:00,
2013-07-05 14:40:00,97.1,62.4,29.92,SSE,159,3.0,3.0,32,0.00,,FEW250,0.00,VWS V14.01,2013-07-05 19:40:00,
2013-07-05 14:45:00,97.0,62.3,29.92,SSW,202,0.0,2.0,32,0.00,,FEW250,0.00,VWS V14.01,2013-07-05 19:45:00,
2013-07-05 14:50:00,97.1,63.2,29.92,SE,144,0.0,1.0,33,0.00,,FEW250,0.00,VWS V14.01,2013-07-05 19:50:00,
2013-07-05 14:55:00,97.8,64.7,29.92,SSW,211,3.0,3.0,34,0.00,,FEW250,0.00,VWS V14.01,2013-07-05 19:55:00,
2013-07-05 15:00:00,98.2,62.4,29.91,SE,138,1.0,3.0,31,0.00,,BKN250,0.00,VWS V14.01,2013-07-05 20:00:00,
2013-07-05 15:05:00,97.7,63.8,29.91,NE,53,2.0,2.0,33,0.00,,BKN250,0.00,VWS V14.01,2013-07-05 20:05:00,
2013-07-05 15:10:00,97.1,63.2,29.91,East,100,1.0,4.0,33,0.00,,BKN250,0.00,VWS V14.01,2013-07-05 20:10:00,
2013-07-05 15:15:00,97.7,61.0,29.92,SW,233,1.0,3.0,30,0.00,,FEW250,0.00,VWS V14.01,2013-07-05 20:15:00,
2013-07-05 15:16:00,96.6,61.9,29.91,NE,43,5.0,6.0,32,0.00,,BKN250,0.00,VWS V14.01,2013-07-05 20:16:00,
2013-07-05 15:20:00,97.7,61.0,29.92,East,89,1.0,5.0,30,0.00,,FEW250,0.00,VWS V14.01,2013-07-05 20:20:00,
2013-07-05 15:21:00,95.8,61.2,29.91,SSW,205,1.0,2.0,32,0.00,,BKN250,0.00,VWS V14.01,2013-07-05 20:21:00,
2013-07-05 15:25:00,98.0,61.3,29.93,SE,128,1.0,2.0,30,0.00,,FEW250,0.00,VWS V14.01,2013-07-05 20:25:00,
2013-07-05 15:26:00,95.8,61.2,29.91,SSW,202,0.0,2.0,32,0.00,,BKN250,0.00,VWS V14.01,2013-07-05 20:26:00,
2013-07-05 15:30:00,97.9,62.2,29.92,SW,221,4.0,5.0,31,0.00,,FEW250,0.00,VWS V14.01,2013-07-05 20:30:00,
2013-07-05 15:31:00,95.9,61.3,29.90,ENE,71,1.0,3.0,32,0.00,,BKN250,0.00,VWS V14.01,2013-07-05 20:31:00,
2013-07-05 15:35:00,97.3,62.5,29.92,South,172,3.0,5.0,32,0.00,,FEW250,0.00,VWS V14.01,2013-07-05 20:35:00,
2013-07-05 15:36:00,96.1,61.5,29.90,SW,223,0.0,1.0,32,0.00,,BKN250,0.00,VWS V14.01,2013-07-05 20:36:00,
2013-07-05 15:40:00,97.1,62.4,29.92,SSE,167,2.0,4.0,32,0.00,,FEW250,0.00,VWS V14.01,2013-07-05 20:40:00,
2013-07-05 15:41:00,96.0,63.1,29.90,ENE,60,1.0,2.0,34,0.00,,BKN250,0.00,VWS V14.01,2013-07-05 20:41:00,
2013-07-05 15:45:00,96.9,62.2,29.92,South,175,2.0,7.0,32,0.00,,FEW250,0.00,VWS V14.01,2013-07-05 20:45:00,
2013-07-05 15:46:00,95.2,63.3,29.90,South,184,3.0,3.0,35,0.00,,BKN250,0.00,VWS V14.01,2013-07-05 20:46:00,
2013-07-05 15:50:00,97.1,62.4,29.92,SE,144,1.0,3.0,32,0.00,,FEW250,0.00,VWS V14.01,2013-07-05 20:50:00,
2013-07-05 15:51:00,95.1,61.5,29.90,NE,44,2.0,9.0,33,0.00,,BKN250,0.00,VWS V14.01,2013-07-05 20:51:00,
2013-07-05 15:55:00,97.7,64.6,29.92,SW,226,0.0,1.0,34,0.00,,FEW250,0.00,VWS V14.01,2013-07-05 20:55:00,
2013-07-05 15:56:00,95.3,61.7,29.90,SE,133,1.0,4.0,33,0.00,,BKN250,0.00,VWS V14.01,2013-07-05 20:56:00,
2013-07-05 16:00:00,98.2,63.3,29.91,SSW,213,2.0,5.0,32,0.00,,FEW250,0.00,VWS V14.01,2013-07-05 21:00:00,
2013-07-05 16:01:00,95.8,61.2,29.89,ESE,113,1.0,6.0,32,0.00,,BKN300,0.00,VWS V14.01,2013-07-05 21:01:00,
2013-07-05 16:05:00,97.8,63.0,29.91,NE,50,0.0,4.0,32,0.00,,FEW250,0.00,VWS V14.01,2013-07-05 21:05:00,
2013-07-05 16:06:00,95.7,62.0,29.89,ENE,58,5.0,5.0,33,0.00,,BKN300,0.00,VWS V14.01,2013-07-05 21:06:00,
2013-07-05 16:10:00,97.2,63.3,29.91,ENE,76,3.0,5.0,33,0.00,,FEW250,0.00,VWS V14.01,2013-07-05 21:10:00,
2013-07-05 16:11:00,95.7,62.0,29.89,ESE,108,0.0,3.0,33,0.00,,BKN300,0.00,VWS V14.01,2013-07-05 21:11:00,
2013-07-05 16:15:00,96.7,62.0,29.91,NNE,31,1.0,4.0,32,0.00,,FEW250,0.00,VWS V14.01,2013-07-05 21:15:00,
2013-07-05 16:16:00,95.9,63.0,29.88,SW,223,0.0,0.0,34,0.00,,BKN300,0.00,VWS V14.01,2013-07-05 21:16:00,
2013-07-05 16:17:00,96.0,63.1,29.88,ESE,107,0.0,0.0,34,0.00,,BKN300,0.00,VWS V14.01,2013-07-05 21:17:00,
2013-07-05 16:20:00,95.9,60.4,29.91,WSW,252,0.0,8.0,31,0.00,,FEW250,0.00,VWS V14.01,2013-07-05 21:20:00,
2013-07-05 16:22:00,96.4,63.5,29.88,North,11,0.0,5.0,34,0.00,,BKN300,0.00,VWS V14.01,2013-07-05 21:22:00,
2013-07-05 16:25:00,95.8,61.2,29.91,SSW,196,2.0,3.0,32,0.00,,FEW250,0.00,VWS V14.01,2013-07-05 21:25:00,
2013-07-05 16:27:00,95.8,62.1,29.88,East,80,3.0,9.0,33,0.00,,BKN300,0.00,VWS V14.01,2013-07-05 21:27:00,
2013-07-05 16:30:00,95.9,61.3,29.90,SE,139,0.0,3.0,32,0.00,,FEW250,0.00,VWS V14.01,2013-07-05 21:30:00,
2013-07-05 16:32:00,95.4,61.8,29.88,NNE,20,3.0,5.0,33,0.00,,BKN300,0.00,VWS V14.01,2013-07-05 21:32:00,
2013-07-05 16:35:00,96.0,61.4,29.90,NE,55,1.0,6.0,32,0.00,,FEW250,0.00,VWS V14.01,2013-07-05 21:35:00,
2013-07-05 16:37:00,95.2,60.7,29.88,SSW,196,0.0,4.0,32,0.00,,BKN300,0.00,VWS V14.01,2013-07-05 21:37:00,
2013-07-05 16:40:00,96.1,62.4,29.90,ENE,69,2.0,5.0,33,0.00,,FEW250,0.00,VWS V14.01,2013-07-05 21:40:00,
2013-07-05 16:42:00,95.2,60.7,29.87,SE,139,2.0,9.0,32,0.00,,BKN300,0.00,VWS V14.01,2013-07-05 21:42:00,
2013-07-05 16:45:00,95.4,62.6,29.90,ENE,59,1.0,7.0,34,0.00,,FEW250,0.00,VWS V14.01,2013-07-05 21:45:00,
2013-07-05 16:47:00,95.1,61.5,29.87,SSE,147,1.0,4.0,33,0.00,,BKN300,0.00,VWS V14.01,2013-07-05 21:47:00,
2013-07-05 16:50:00,95.2,63.3,29.90,ENE,65,3.0,7.0,35,0.00,,FEW250,0.00,VWS V14.01,2013-07-05 21:50:00,
2013-07-05 16:52:00,94.9,60.5,29.87,WSW,242,3.0,7.0,32,0.00,,BKN300,0.00,VWS V14.01,2013-07-05 21:52:00,
2013-07-05 16:55:00,95.2,62.4,29.90,SSE,152,3.0,9.0,34,0.00,,FEW250,0.00,VWS V14.01,2013-07-05 21:55:00,
2013-07-05 16:57:00,94.8,60.4,29.87,SSW,211,0.0,4.0,32,0.00,,BKN300,0.00,VWS V14.01,2013-07-05 21:57:00,
2013-07-05 17:00:00,95.7,62.0,29.89,ENE,69,2.0,4.0,33,0.00,,FEW250,0.00,VWS V14.01,2013-07-05 22:00:00,
2013-07-05 17:02:00,95.0,60.5,29.87,ENE,61,2.0,7.0,32,0.00,,BKN300,0.00,VWS V14.01,2013-07-05 22:02:00,
2013-07-05 17:05:00,95.8,62.1,29.89,NE,53,1.0,6.0,33,0.00,,FEW250,0.00,VWS V14.01,2013-07-05 22:05:00,
2013-07-05 17:07:00,94.9,58.7,29.86,SE,136,0.0,5.0,30,0.00,,BKN300,0.00,VWS V14.01,2013-07-05 22:07:00,
2013-07-05 17:10:00,95.6,62.8,29.89,SSW,213,0.0,7.0,34,0.00,,FEW250,0.00,VWS V14.01,2013-07-05 22:10:00,
2013-07-05 17:13:00,95.0,59.7,29.86,SE,138,0.0,2.0,31,0.00,,BKN300,0.00,VWS V14.01,2013-07-05 22:13:00,
2013-07-05 17:15:00,95.8,63.0,29.89,SW,223,0.0,3.0,34,0.00,,FEW250,0.00,VWS V14.01,2013-07-05 22:15:00,
2013-07-05 17:18:00,95.0,59.7,29.86,SSW,205,3.0,5.0,31,0.00,,BKN300,0.00,VWS V14.01,2013-07-05 22:18:00,
2013-07-05 17:20:00,96.2,63.3,29.88,East,86,0.0,3.0,34,0.00,,FEW250,0.00,VWS V14.01,2013-07-05 22:20:00,
2013-07-05 17:23:00,94.7,59.4,29.86,NE,50,1.0,4.0,31,0.00,,BKN300,0.00,VWS V14.01,2013-07-05 22:23:00,
2013-07-05 17:25:00,96.2,62.5,29.88,NE,38,2.0,7.0,33,0.00,,FEW250,0.00,VWS V14.01,2013-07-05 22:25:00,
2013-07-05 17:28:00,94.4,60.9,29.86,ESE,116,1.0,4.0,33,0.00,,BKN300,0.00,VWS V14.01,2013-07-05 22:28:00,
2013-07-05 17:30:00,95.5,61.8,29.88,SE,136,1.0,9.0,33,0.00,,FEW250,0.00,VWS V14.01,2013-07-05 22:30:00,
2013-07-05 17:33:00,94.4,60.9,29.85,ENE,65,2.0,3.0,33,0.00,,BKN300,0.00,VWS V14.01,2013-07-05 22:33:00,
2013-07-05 17:35:00,95.3,61.7,29.88,SW,217,0.0,5.0,33,0.00,,FEW250,0.00,VWS V14.01,2013-07-05 22:35:00,
2013-07-05 17:38:00,94.6,60.2,29.85,East,84,5.0,5.0,32,0.00,,BKN300,0.00,VWS V14.01,2013-07-05 22:38:00,
2013-07-05 17:40:00,95.2,62.4,29.87,SW,227,9.0,9.0,34,0.00,,FEW250,0.00,VWS V14.01,2013-07-05 22:40:00,
2013-07-05 17:43:00,94.7,60.3,29.85,NNE,28,2.0,3.0,32,0.00,,BKN300,0.00,VWS V14.01,2013-07-05 22:43:00,
2013-07-05 17:45:00,95.1,61.5,29.87,ESE,103,1.0,9.0,33,0.00,,FEW250,0.00,VWS V14.01,2013-07-05 22:45:00,
2013-07-05 17:48:00,94.3,59.9,29.85,NE,47,0.0,4.0,32,0.00,,BKN300,0.00,VWS V14.01,2013-07-05 22:48:00,
2013-07-05 17:50:00,95.1,60.6,29.87,SSW,206,1.0,6.0,32,0.00,,FEW250,0.00,VWS V14.01,2013-07-05 22:50:00,
2013-07-05 17:53:00,94.1,61.5,29.85,SW,233,0.0,8.0,34,0.00,,BKN300,0.00,VWS V14.01,2013-07-05 22:53:00,
2013-07-05 17:55:00,94.8,60.4,29.87,SSE,154,1.0,7.0,32,0.00,,FEW250,0.00,VWS V14.01,2013-07-05 22:55:00,
2013-07-05 17:58:00,94.2,61.6,29.85,SSE,156,0.0,3.0,34,0.00,,BKN300,0.00,VWS V14.01,2013-07-05 22:58:00,
2013-07-05 18:00:00,94.9,60.5,29.87,ENE,78,4.0,8.0,32,0.00,,FEW250,0.00,VWS V14.01,2013-07-05 23:00:00,
2013-07-05 18:03:00,94.3,60.8,29.85,ENE,70,0.0,3.0,33,0.00,,BKN300,0.00,VWS V14.01,2013-07-05 23:03:00,
2013-07-05 18:05:00,94.9,60.5,29.87,East,82,0.0,7.0,32,0.00,,FEW250,0.00,VWS V14.01,2013-07-05 23:05:00,
2013-07-05 18:08:00,94.5,61.0,29.85,ENE,58,8.0,8.0,33,0.00,,BKN300,0.00,VWS V14.01,2013-07-05 23:08:00,
2013-07-05 18:10:00,95.0,59.7,29.86,SSE,167,0.0,8.0,31,0.00,,FEW250,0.00,VWS V14.01,2013-07-05 23:10:00,
2013-07-05 18:13:00,94.2,61.6,29.85,NNE,16,0.0,4.0,34,0.00,,BKN300,0.00,VWS V14.01,2013-07-05 23:13:00,
2013-07-05 18:15:00,95.0,60.5,29.86,South,173,2.0,5.0,32,0.00,,FEW250,0.00,VWS V14.01,2013-07-05 23:15:00,
2013-07-05 18:18:00,94.2,61.6,29.85,SSE,159,2.0,3.0,34,0.00,,BKN300,0.00,VWS V14.01,2013-07-05 23:18:00,
2013-07-05 18:20:00,94.9,59.6,29.86,East,85,1.0,5.0,31,0.00,,FEW250,0.00,VWS V14.01,2013-07-05 23:20:00,
2013-07-05 18:23:00,94.1,61.5,29.85,East,98,2.0,5.0,34,0.00,,BKN300,0.00,VWS V14.01,2013-07-05 23:23:00,
2013-07-05 18:25:00,94.5,60.1,29.86,ENE,67,2.0,7.0,32,0.00,,FEW250,0.00,VWS V14.01,2013-07-05 23:25:00,
2013-07-05 18:28:00,93.8,61.2,29.84,ENE,66,1.0,5.0,34,0.00,,BKN300,0.00,VWS V14.01,2013-07-05 23:28:00,
2013-07-05 18:30:00,94.4,60.0,29.85,ENE,65,3.0,4.0,32,0.00,,FEW250,0.00,VWS V14.01,2013-07-05 23:30:00,
2013-07-05 18:33:00,93.4,61.7,29.85,NNE,27,3.0,4.0,35,0.00,,BKN300,0.00,VWS V14.01,2013-07-05 23:33:00,
2013-07-05 18:35:00,94.5,61.0,29.85,SE,136,0.0,3.0,33,0.00,,FEW250,0.00,VWS V14.01,2013-07-05 23:35:00,
2013-07-05 18:38:00,93.1,60.6,29.85,SSW,209,0.0,3.0,34,0.00,,BKN300,0.00,VWS V14.01,2013-07-05 23:38:00,
2013-07-05 18:40:00,94.6,60.2,29.85,NE,44,2.0,7.0,32,0.00,,FEW250,0.00,VWS V14.01,2013-07-05 23:40:00,
2013-07-05 18:43:00,93.0,61.3,29.85,ENE,62,2.0,4.0,35,0.00,,BKN300,0.00,VWS V14.01,2013-07-05 23:43:00,
2013-07-05 18:45:00,94.6,59.3,29.85,ENE,70,3.0,3.0,31,0.00,,FEW250,0.00,VWS V14.01,2013-07-05 23:45:00,
2013-07-05 18:48:00,93.2,60.7,29.85,ENE,61,2.0,5.0,34,0.00,,BKN300,0.00,VWS V14.01,2013-07-05 23:48:00,
2013-07-05 18:50:00,94.2,60.7,29.85,NNE,27,2.0,4.0,33,0.00,,FEW250,0.00,VWS V14.01,2013-07-05 23:50:00,
2013-07-05 18:53:00,93.2,59.8,29.85,NE,38,1.0,6.0,33,0.00,,BKN300,0.00,VWS V14.01,2013-07-05 23:53:00,
2013-07-05 18:55:00,94.2,61.6,29.85,NE,49,1.0,8.0,34,0.00,,FEW250,0.00,VWS V14.01,2013-07-05 23:55:00,
2013-07-05 18:58:00,93.0,60.5,29.85,SW,226,0.0,4.0,34,0.00,,BKN300,0.00,VWS V14.01,2013-07-05 23:58:00,
2013-07-05 19:00:00,94.2,60.7,29.85,SSE,149,0.0,5.0,33,0.00,,FEW250,0.00,VWS V14.01,2013-07-06 00:00:00,
2013-07-05 19:03:00,92.9,61.2,29.85,East,94,2.0,3.0,35,0.00,,BKN300,0.00,VWS V14.01,2013-07-06 00:03:00,
2013-07-05 19:05:00,94.4,60.9,29.85,East,101,0.0,4.0,33,0.00,,FEW250,0.00,VWS V14.01,2013-07-06 00:05:00,
2013-07-05 19:08:00,92.8,60.3,29.85,SE,136,2.0,4.0,34,0.00,,BKN300,0.00,VWS V14.01,2013-07-06 00:08:00,
2013-07-05 19:10:00,94.4,60.9,29.85,ENE,61,4.0,8.0,33,0.00,,FEW250,0.00,VWS V14.01,2013-07-06 00:10:00,
2013-07-05 19:13:00,92.6,60.2,29.85,SW,217,1.0,6.0,34,0.00,,BKN300,0.00,VWS V14.01,2013-07-06 00:13:00,
2013-07-05 19:15:00,94.3,60.8,29.85,SSE,148,0.0,4.0,33,0.00,,FEW250,0.00,VWS V14.01,2013-07-06 00:15:00,
2013-07-05 19:18:00,92.5,60.1,29.85,NW,321,0.0,6.0,34,0.00,,BKN300,0.00,VWS V14.01,2013-07-06 00:18:00,
2013-07-05 19:20:00,94.1,61.5,29.84,SSW,205,0.0,4.0,34,0.00,,FEW250,0.00,VWS V14.01,2013-07-06 00:20:00,
2013-07-05 19:23:00,92.4,60.0,29.85,SE,135,1.0,5.0,34,0.00,,BKN300,0.00,VWS V14.01,2013-07-06 00:23:00,
2013-07-05 19:25:00,94.0,61.4,29.85,NE,49,3.0,6.0,34,0.00,,FEW250,0.00,VWS V14.01,2013-07-06 00:25:00,
2013-07-05 19:28:00,92.3,59.1,29.85,South,171,1.0,4.0,33,0.00,,BKN300,0.00,VWS V14.01,2013-07-06 00:28:00,
2013-07-05 19:30:00,93.7,61.1,29.85,ENE,58,2.0,6.0,34,0.00,,FEW250,0.00,VWS V14.01,2013-07-06 00:30:00,
2013-07-05 19:33:00,92.2,59.0,29.85,NE,47,2.0,2.0,33,0.00,,BKN300,0.00,VWS V14.01,2013-07-06 00:33:00,
2013-07-05 19:35:00,93.2,60.7,29.85,ESE,116,1.0,4.0,34,0.00,,FEW250,0.00,VWS V14.01,2013-07-06 00:35:00,
2013-07-05 19:38:00,92.0,58.8,29.85,NW,314,1.0,4.0,33,0.00,,BKN300,0.00,VWS V14.01,2013-07-06 00:38:00,
2013-07-05 19:40:00,93.0,60.5,29.85,SE,132,0.0,4.0,34,0.00,,FEW250,0.00,VWS V14.01,2013-07-06 00:40:00,
2013-07-05 19:43:00,91.9,58.7,29.85,SSE,148,1.0,5.0,33,0.00,,BKN300,0.00,VWS V14.01,2013-07-06 00:43:00,
2013-07-05 19:45:00,93.1,61.4,29.85,NE,47,2.0,4.0,35,0.00,,FEW250,0.00,VWS V14.01,2013-07-06 00:45:00,
2013-07-05 19:48:00,91.9,57.9,29.85,SE,138,0.0,4.0,32,0.00,,BKN300,0.00,VWS V14.01,2013-07-06 00:48:00,
2013-07-05 19:49:00,91.8,57.8,29.85,SW,230,0.0,4.0,32,0.00,,BKN300,0.00,VWS V14.01,2013-07-06 00:49:00,
2013-07-05 19:50:00,93.2,60.7,29.85,ENE,64,1.0,5.0,34,0.00,,FEW250,0.00,VWS V14.01,2013-07-06 00:50:00,
2013-07-05 19:54:00,91.7,57.7,29.85,SSE,154,2.0,3.0,32,0.00,,BKN300,0.00,VWS V14.01,2013-07-06 00:54:00,
2013-07-05 19:55:00,93.1,60.6,29.85,ENE,73,0.0,6.0,34,0.00,,FEW250,0.00,VWS V14.01,2013-07-06 00:55:00,
2013-07-05 19:59:00,91.6,58.5,29.85,ENE,74,2.0,2.0,33,0.00,,BKN300,0.00,VWS V14.01,2013-07-06 00:59:00,
2013-07-05 20:00:00,92.9,61.2,29.85,ENE,57,2.0,7.0,35,0.00,,FEW250,0.00,VWS V14.01,2013-07-06 01:00:00,
2013-07-05 20:04:00,91.3,58.2,29.85,SSW,207,1.0,4.0,33,0.00,,BKN300,0.00,VWS V14.01,2013-07-06 01:04:00,
2013-07-05 20:05:00,92.8,60.3,29.85,SW,219,1.0,6.0,34,0.00,,FEW250,0.00,VWS V14.01,2013-07-06 01:05:00,
2013-07-05 20:09:00,91.1,58.0,29.85,ESE,105,0.0,3.0,33,0.00,,BKN300,0.00,VWS V14.01,2013-07-06 01:09:00,
2013-07-05 20:10:00,92.7,60.2,29.85,SSE,148,3.0,4.0,34,0.00,,FEW250,0.00,VWS V14.01,2013-07-06 01:10:00,
2013-07-05 20:14:00,90.9,59.5,29.85,South,184,0.0,3.0,35,0.00,,BKN300,0.00,VWS V14.01,2013-07-06 01:14:00,
2013-07-05 20:15:00,92.6,60.2,29.85,ESE,116,1.0,6.0,34,0.00,,FEW250,0.00,VWS V14.01,2013-07-06 01:15:00,
2013-07-05 20:19:00,90.8,60.2,29.85,SE,140,2.0,6.0,36,0.00,,BKN300,0.00,VWS V14.01,2013-07-06 01:19:00,
2013-07-05 20:20:00,92.5,60.1,29.85,SSW,194,1.0,6.0,34,0.00,,FEW250,0.00,VWS V14.01,2013-07-06 01:20:00,
2013-07-05 20:24:00,90.6,60.0,29.86,SE,144,0.0,4.0,36,0.00,,BKN300,0.00,VWS V14.01,2013-07-06 01:24:00,
2013-07-05 20:25:00,92.3,59.1,29.85,SSE,163,0.0,5.0,33,0.00,,FEW250,0.00,VWS V14.01,2013-07-06 01:25:00,
2013-07-05 20:29:00,90.4,59.8,29.86,SE,134,1.0,2.0,36,0.00,,BKN300,0.00,VWS V14.01,2013-07-06 01:29:00,
2013-07-05 20:30:00,92.2,59.0,29.85,SE,128,0.0,4.0,33,0.00,,FEW250,0.00,VWS V14.01,2013-07-06 01:30:00,
2013-07-05 20:34:00,90.2,59.7,29.86,SSE,147,3.0,7.0,36,0.00,,BKN300,0.00,VWS V14.01,2013-07-06 01:34:00,
2013-07-05 20:35:00,92.1,58.9,29.85,SSE,158,0.0,5.0,33,0.00,,FEW250,0.00,VWS V14.01,2013-07-06 01:35:00,
2013-07-05 20:39:00,90.0,59.5,29.86,SW,218,2.0,2.0,36,0.00,,BKN300,0.00,VWS V14.01,2013-07-06 01:39:00,
2013-07-05 20:40:00,92.0,58.8,29.85,SW,236,1.0,5.0,33,0.00,,FEW250,0.00,VWS V14.01,2013-07-06 01:40:00,
2013-07-05 20:44:00,89.8,60.1,29.86,SW,217,0.0,2.0,37,0.00,,BKN300,0.00,VWS V14.01,2013-07-06 01:44:00,
2013-07-05 20:45:00,91.9,57.9,29.85,ESE,112,2.0,5.0,32,0.00,,FEW250,0.00,VWS V14.01,2013-07-06 01:45:00,
2013-07-05 20:49:00,89.7,60.0,29.86,ENE,78,0.0,5.0,37,0.00,,BKN300,0.00,VWS V14.01,2013-07-06 01:49:00,
2013-07-05 20:50:00,91.8,57.8,29.85,East,84,1.0,4.0,32,0.00,,FEW250,0.00,VWS V14.01,2013-07-06 01:50:00,
2013-07-05 20:54:00,89.5,60.6,29.86,NE,54,2.0,3.0,38,0.00,,BKN300,0.00,VWS V14.01,2013-07-06 01:54:00,
2013-07-05 20:55:00,91.7,57.7,29.85,SE,145,1.0,3.0,32,0.00,,FEW250,0.00,VWS V14.01,2013-07-06 01:55:00,
2013-07-05 20:59:00,89.4,61.2,29.86,ENE,57,1.0,3.0,39,0.00,,BKN300,0.00,VWS V14.01,2013-07-06 01:59:00,
2013-07-05 21:00:00,91.5,58.4,29.85,SE,132,0.0,2.0,33,0.00,,FEW250,0.00,VWS V14.01,2013-07-06 02:00:00,
2013-07-05 21:04:00,89.1,60.9,29.86,ENE,59,0.0,3.0,39,0.00,,BKN300,0.00,VWS V14.01,2013-07-06 02:04:00,
2013-07-05 21:05:00,91.3,58.2,29.85,SE,134,1.0,4.0,33,0.00,,FEW250,0.00,VWS V14.01,2013-07-06 02:05:00,
2013-07-05 21:09:00,88.9,61.5,29.86,ENE,61,0.0,1.0,40,0.00,,BKN300,0.00,VWS V14.01,2013-07-06 02:09:00,
2013-07-05 21:10:00,91.1,58.0,29.85,ENE,57,0.0,3.0,33,0.00,,FEW250,0.00,VWS V14.01,2013-07-06 02:10:00,
2013-07-05 21:14:00,88.6,61.2,29.87,ESE,111,0.0,1.0,40,0.00,,BKN300,0.00,VWS V14.01,2013-07-06 02:14:00,
2013-07-05 21:15:00,90.9,59.5,29.85,NE,50,1.0,3.0,35,0.00,,FEW250,0.00,VWS V14.01,2013-07-06 02:15:00,
2013-07-05 21:19:00,88.3,61.6,29.87,SW,214,0.0,2.0,41,0.00,,BKN300,0.00,VWS V14.01,2013-07-06 02:19:00,
2013-07-05 21:20:00,90.8,60.2,29.85,SE,138,0.0,6.0,36,0.00,,FEW250,0.00,VWS V14.01,2013-07-06 02:20:00,
2013-07-05 21:24:00,88.1,61.5,29.87,ESE,117,0.0,0.0,41,0.00,,BKN300,0.00,VWS V14.01,2013-07-06 02:24:00,
2013-07-05 21:25:00,90.6,60.8,29.86,SSW,202,1.0,4.0,37,0.00,,FEW250,0.00,VWS V14.01,2013-07-06 02:25:00,
2013-07-05 21:29:00,87.8,61.9,29.88,SW,229,0.0,2.0,42,0.00,,BKN300,0.00,VWS V14.01,2013-07-06 02:29:00,
2013-07-05 21:30:00,90.3,59.8,29.86,SE,136,1.0,2.0,36,0.00,,FEW250,0.00,VWS V14.01,2013-07-06 02:30:00,
2013-07-05 21:34:00,87.8,61.9,29.88,NE,42,2.0,3.0,42,0.00,,BKN300,0.00,VWS V14.01,2013-07-06 02:34:00,
2013-07-05 21:35:00,90.2,59.7,29.86,SSW,194,0.0,7.0,36,0.00,,FEW250,0.00,VWS V14.01,2013-07-06 02:35:00,
2013-07-05 21:39:00,87.8,61.9,29.87,NE,43,0.0,8.0,42,0.00,,BKN300,0.00,VWS V14.01,2013-07-06 02:39:00,
2013-07-05 21:40:00,90.0,59.5,29.86,SE,145,0.0,2.0,36,0.00,,FEW250,0.00,VWS V14.01,2013-07-06 02:40:00,
2013-07-05 21:44:00,87.7,61.8,29.88,SSE,161,2.0,5.0,42,0.00,,BKN300,0.00,VWS V14.01,2013-07-06 02:44:00,
2013-07-05 21:45:00,89.8,60.1,29.86,SSW,207,1.0,2.0,37,0.00,,FEW250,0.00,VWS V14.01,2013-07-06 02:45:00,
2013-07-05 21:49:00,87.6,61.7,29.88,ENE,57,0.0,2.0,42,0.00,,BKN300,0.00,VWS V14.01,2013-07-06 02:49:00,
2013-07-05 21:50:00,89.7,60.0,29.86,South,171,1.0,5.0,37,0.00,,FEW250,0.00,VWS V14.01,2013-07-06 02:50:00,
2013-07-05 21:54:00,87.4,61.5,29.88,SSE,160,0.0,2.0,42,0.00,,BKN300,0.00,VWS V14.01,2013-07-06 02:54:00,
2013-07-05 21:55:00,89.5,60.6,29.86,NE,54,0.0,3.0,38,0.00,,FEW250,0.00,VWS V14.01,2013-07-06 02:55:00,
2013-07-05 21:59:00,87.3,62.1,29.88,WSW,243,2.0,5.0,43,0.00,,BKN300,0.00,VWS V14.01,2013-07-06 02:59:00,
2013-07-05 22:00:00,89.3,61.1,29.86,ENE,70,1.0,3.0,39,0.00,,FEW250,0.00,VWS V14.01,2013-07-06 03:00:00,
2013-07-05 22:04:00,87.1,61.9,29.89,SSW,210,0.0,3.0,43,0.00,,BKN300,0.00,VWS V14.01,2013-07-06 03:04:00,
2013-07-05 22:05:00,89.1,60.9,29.86,WSW,246,1.0,3.0,39,0.00,,FEW250,0.00,VWS V14.01,2013-07-06 03:05:00,
2013-07-05 22:09:00,86.8,62.3,29.89,SE,130,0.0,1.0,44,0.00,,BKN300,0.00,VWS V14.01,2013-07-06 03:09:00,
2013-07-05 22:10:00,88.8,61.4,29.86,ENE,66,1.0,2.0,40,0.00,,FEW250,0.00,VWS V14.01,2013-07-06 03:10:00,
2013-07-05 22:14:00,86.5,62.0,29.89,South,178,1.0,3.0,44,0.00,,BKN300,0.00,VWS V14.01,2013-07-06 03:14:00,
2013-07-05 22:15:00,88.6,61.2,29.87,ESE,111,0.0,1.0,40,0.00,,FEW250,0.00,VWS V14.01,2013-07-06 03:15:00,
2013-07-05 22:19:00,86.4,61.9,29.89,ENE,70,0.0,1.0,44,0.00,,BKN300,0.00,VWS V14.01,2013-07-06 03:19:00,
2013-07-05 22:20:00,88.3,61.6,29.87,SSW,213,0.0,2.0,41,0.00,,FEW250,0.00,VWS V14.01,2013-07-06 03:20:00,
2013-07-05 22:24:00,86.3,61.8,29.89,SE,135,0.0,2.0,44,0.00,,BKN300,0.00,VWS V14.01,2013-07-06 03:24:00,
2013-07-05 22:25:00,88.0,61.4,29.87,ESE,117,0.0,0.0,41,0.00,,BKN250,0.00,VWS V14.01,2013-07-06 03:25:00,
2013-07-05 22:29:00,86.2,61.8,29.89,SE,141,0.0,5.0,44,0.00,,BKN300,0.00,VWS V14.01,2013-07-06 03:29:00,
2013-07-05 22:30:00,87.8,61.9,29.88,SW,229,0.0,2.0,42,0.00,,FEW250,0.00,VWS V14.01,2013-07-06 03:30:00,
2013-07-05 22:35:00,86.2,61.8,29.89,SSE,161,1.0,3.0,44,0.00,,BKN300,0.00,VWS V14.01,2013-07-06 03:35:00,
2013-07-05 22:40:00,86.1,61.7,29.89,SSW,203,1.0,5.0,44,0.00,,BKN300,0.00,VWS V14.01,2013-07-06 03:40:00,
2013-07-05 22:45:00,86.0,61.6,29.89,NE,44,0.0,2.0,44,0.00,,BKN300,0.00,VWS V14.01,2013-07-06 03:45:00,
2013-07-05 22:50:00,85.9,62.1,29.89,SSW,199,2.0,2.0,45,0.00,,BKN300,0.00,VWS V14.01,2013-07-06 03:50:00,
2013-07-05 22:55:00,85.7,61.9,29.90,South,171,2.0,3.0,45,0.00,,BKN300,0.00,VWS V14.01,2013-07-06 03:55:00,
2013-07-05 23:00:00,85.6,61.8,29.90,SW,229,0.0,5.0,45,0.00,,SCT300,0.00,VWS V14.01,2013-07-06 04:00:00,
2013-07-05 23:01:00,85.6,61.8,29.90,SE,133,0.0,1.0,45,0.00,,SCT300,0.00,VWS V14.01,2013-07-06 04:01:00,
2013-07-05 23:05:00,87.1,61.9,29.89,SSW,211,0.0,3.0,43,0.00,,FEW250,0.00,VWS V14.01,2013-07-06 04:05:00,
2013-07-05 23:06:00,85.4,61.7,29.90,SSE,155,1.0,2.0,45,0.00,,SCT300,0.00,VWS V14.01,2013-07-06 04:06:00,
2013-07-05 23:10:00,86.8,62.3,29.89,SE,130,0.0,1.0,44,0.00,,FEW250,0.00,VWS V14.01,2013-07-06 04:10:00,
2013-07-05 23:11:00,85.4,61.7,29.91,South,173,0.0,3.0,45,0.00,,SCT300,0.00,VWS V14.01,2013-07-06 04:11:00,
2013-07-05 23:15:00,86.6,62.1,29.89,South,178,0.0,3.0,44,0.00,,FEW250,0.00,VWS V14.01,2013-07-06 04:15:00,
2013-07-05 23:16:00,85.4,61.7,29.91,SE,141,0.0,4.0,45,0.00,,SCT300,0.00,VWS V14.01,2013-07-06 04:16:00,
2013-07-05 23:20:00,86.4,61.9,29.89,ENE,70,0.0,1.0,44,0.00,,FEW250,0.00,VWS V14.01,2013-07-06 04:20:00,
2013-07-05 23:21:00,85.4,61.7,29.91,West,263,2.0,5.0,45,0.00,,SCT300,0.00,VWS V14.01,2013-07-06 04:21:00,
2013-07-05 23:25:00,86.3,61.8,29.89,SE,134,1.0,2.0,44,0.00,,FEW250,0.00,VWS V14.01,2013-07-06 04:25:00,
2013-07-05 23:26:00,85.4,61.7,29.91,SSW,209,0.0,3.0,45,0.00,,SCT300,0.00,VWS V14.01,2013-07-06 04:26:00,
2013-07-05 23:30:00,86.2,61.8,29.89,SE,142,0.0,5.0,44,0.00,,FEW250,0.00,VWS V14.01,2013-07-06 04:30:00,
2013-07-05 23:31:00,85.4,61.7,29.91,SE,136,0.0,1.0,45,0.00,,SCT300,0.00,VWS V14.01,2013-07-06 04:31:00,
2013-07-05 23:35:00,86.1,61.7,29.89,SSE,157,1.0,3.0,44,0.00,,FEW250,0.00,VWS V14.01,2013-07-06 04:35:00,
2013-07-05 23:36:00,85.2,61.5,29.91,South,184,1.0,6.0,45,0.00,,SCT300,0.00,VWS V14.01,2013-07-06 04:36:00,
2013-07-05 23:40:00,86.1,61.7,29.89,SSW,205,0.0,5.0,44,0.00,,FEW250,0.00,VWS V14.01,2013-07-06 04:40:00,
2013-07-05 23:41:00,85.1,61.4,29.91,SE,135,3.0,4.0,45,0.00,,SCT300,0.00,VWS V14.01,2013-07-06 04:41:00,
2013-07-05 23:45:00,86.0,61.6,29.89,NE,44,0.0,2.0,44,0.00,,FEW250,0.00,VWS V14.01,2013-07-06 04:45:00,
2013-07-05 23:46:00,85.0,61.9,29.91,SW,225,6.0,6.0,46,0.00,,SCT300,0.00,VWS V14.01,2013-07-06 04:46:00,
2013-07-05 23:50:00,85.9,62.1,29.89,SSW,199,1.0,2.0,45,0.00,,FEW250,0.00,VWS V14.01,2013-07-06 04:50:00,
2013-07-05 23:51:00,85.0,61.9,29.92,SE,144,3.0,5.0,46,0.00,,SCT300,0.00,VWS V14.01,2013-07-06 04:51:00,
2013-07-05 23:55:00,85.7,61.9,29.90,SSW,199,2.0,3.0,45,0.00,,FEW250,0.00,VWS V14.01,2013-07-06 04:55:00,
2013-07-05 23:56:00,84.9,61.8,29.92,SSE,148,1.0,7.0,46,0.00,,SCT300,0.00,VWS V14.01,2013-07-06 04:56:00,